Wind_Speed
43 48 47 42 41 42 41 40 40 39 43 41 36 38 37 35 35 36 37 39 40 41 44 42 40 41 42 44 43 42 42 40
45 52 49 45 43 44 41 38 36 35 35 36 31 32 36 37 38 38 39 41 42 43 44 45 46 43 44 44 45 45 46 45
47 47 45 45 44 42 37 35 34 33 33 33 32 29 30 34 37 39 40 42 45 47 48 47 47 48 48 48 47 46 48 47
38 40 40 44 40 31 27 29 32 33 30 29 28 29 29 31 34 36 39 43 44 47 47 48 50 52 54 53 52 48 46 49
43 44 46 36 26 21 22 25 27 25 25 25 26 27 29 31 33 35 36 39 43 46 49 50 52 53 56 56 52 52 50 52
39 42 38 23 20 22 18 21 28 24 23 24 24 26 27 29 31 33 36 37 40 42 45 48 51 54 56 55 55 55 52 54
41 39 26 19 21 20 17 20 31 27 28 30 31 28 27 28 30 30 31 33 35 40 43 46 50 54 57 54 53 52 52 52
40 32 22 19 14 15 21 27 28 26 30 33 34 35 34 31 29 29 28 29 29 32 39 42 45 46 48 51 56 53 53 55
30 26 18 15 15 16 19 19 22 25 29 31 34 35 35 33 31 30 28 27 28 29 31 38 39 40 38 43 50 53 52 55
22 17 6 5 10 17 18 21 26 27 28 30 32 34 34 33 31 30 31 29 28 28 30 32 36 36 37 35 38 43 45 49
11 7 5 10 14 17 21 27 30 31 31 32 33 33 32 31 30 30 31 31 31 30 29 28 31 33 32 35 37 41 42 44
17 16 15 18 24 23 24 25 27 30 31 31 30 29 29 30 31 31 32 32 32 32 30 29 29 29 30 35 39 38 40 35
22 21 20 20 23 25 26 26 28 30 31 28 26 26 27 28 30 33 35 33 32 31 32 31 30 28 30 29 33 40 42 36
25 26 25 23 23 23 25 25 25 25 24 24 24 25 26 27 28 32 35 34 32 29 32 34 34 33 34 33 36 35 38 35
26 28 28 27 25 23 24 24 24 23 21 22 22 23 24 25 27 31 32 30 28 27 31 33 32 37 36 34 37 40 41 33
27 27 25 24 23 21 22 22 20 18 18 18 18 19 20 22 24 26 26 24 24 25 24 29 26 29 32 35 36 37 38 40
25 22 21 20 19 17 16 15 14 13 14 13 15 16 16 18 20 21 21 23 24 24 21 22 22 26 30 22 31 22 23 26
18 15 14 13 13 13 10 8 8 8 9 10 11 13 16 19 20 20 18 17 18 17 18 20 22 24 26 17 24 28 27 29
14 13 12 11 10 9 7 6 6 6 7 8 11 14 17 19 21 24 25 26 27 27 23 16 13 20 22 20 24 21 26 22
Wind_Direction
250 241 243 242 241 242 242 245 255 261 263 266 254 255 258 251 246 247 248 249 249 249 251 252 254 254 253 252 253 252 251 249
223 230 232 237 241 242 244 249 255 265 263 257 252 247 251 257 257 251 250 250 252 253 253 255 255 254 256 255 256 255 255 252
217 224 230 238 238 239 242 248 263 272 265 258 257 255 251 252 254 256 256 254 253 253 253 253 254 257 256 255 254 255 256 254
229 227 231 235 236 238 245 253 267 276 265 262 264 265 262 256 254 252 253 256 257 258 257 256 255 255 255 254 255 254 255 257
220 227 234 228 228 232 244 266 274 269 271 272 270 270 269 270 268 262 256 255 256 258 259 259 260 258 255 257 256 252 253 256
202 211 233 211 215 242 243 258 274 271 275 278 278 275 273 268 267 268 265 261 262 261 261 262 263 262 261 258 255 256 254 253
214 218 204 210 228 233 242 271 279 275 284 287 288 291 285 279 277 272 268 263 261 264 263 262 263 263 265 264 260 253 255 254
200 209 199 197 205 245 266 270 264 280 288 292 293 289 287 286 282 276 272 267 265 263 265 265 265 264 264 264 262 256 253 256
179 185 189 202 233 253 251 263 278 290 295 295 292 291 287 284 283 282 279 275 270 267 264 264 264 265 267 264 259 257 253 255
159 166 167 218 243 259 268 279 288 292 298 296 294 292 288 285 285 285 286 283 277 272 269 267 265 267 264 259 261 252 255 258
52 60 31 313 301 290 294 298 300 302 300 296 292 292 289 287 284 283 287 287 282 278 273 271 267 262 261 257 261 255 261 256
16 359 344 323 317 310 303 300 303 301 297 295 295 292 290 289 286 284 285 286 283 279 274 271 267 266 266 257 260 245 247 245
341 338 328 314 307 308 305 307 308 307 304 304 304 301 292 287 287 287 289 289 286 280 272 267 267 262 265 262 251 244 244 241
321 326 324 317 314 310 306 309 310 311 314 311 307 304 300 296 290 289 291 290 289 285 273 265 264 261 261 267 256 245 233 236
319 322 320 315 313 309 309 315 316 319 321 316 314 311 308 303 300 295 289 289 291 293 287 271 269 258 254 261 259 250 244 236
314 314 311 309 310 310 312 313 319 327 327 324 322 323 324 323 319 314 308 302 298 295 294 281 280 268 255 259 261 260 249 242
309 307 310 315 312 312 315 321 332 335 336 344 347 348 353 354 349 342 338 327 318 309 299 285 277 266 270 274 256 252 245 248
308 310 317 323 327 329 329 335 351 355 359 7 15 22 24 28 29 28 22 15 5 342 310 294 281 285 268 254 261 253 246 236
316 322 332 339 345 345 345 352 355 358 11 30 38 39 38 34 33 33 34 38 36 33 24 6 319 283 265 265 239 247 245 248
Height
3058 3059 3060 3061 3062 3065 3070 3074 3074 3075 3075 3076 3075 3074 3074 3077 3078 3079 3081 3082 3083 3084 3085 3086 3087 3089 3090 3092 3094 3098 3100 3102
3045 3047 3051 3053 3056 3059 3063 3066 3068 3067 3065 3066 3067 3068 3068 3068 3069 3071 3072 3073 3074 3075 3076 3077 3078 3079 3081 3084 3086 3087 3090 3092
3037 3042 3046 3049 3050 3053 3057 3059 3061 3061 3061 3059 3058 3059 3061 3062 3062 3062 3062 3063 3064 3065 3066 3067 3069 3070 3072 3072 3076 3079 3080 3081
3040 3042 3042 3043 3045 3049 3052 3054 3054 3054 3054 3054 3051 3051 3052 3053 3054 3054 3054 3053 3053 3054 3055 3056 3057 3059 3060 3062 3064 3068 3071 3070
3032 3036 3037 3037 3039 3043 3046 3048 3048 3048 3048 3047 3046 3044 3045 3045 3044 3044 3045 3044 3044 3044 3043 3044 3045 3046 3047 3050 3052 3055 3059 3058
3023 3026 3030 3031 3035 3037 3040 3042 3042 3042 3040 3041 3040 3038 3038 3038 3036 3035 3035 3034 3033 3033 3033 3032 3032 3033 3034 3037 3039 3042 3045 3047
3020 3021 3026 3029 3031 3034 3035 3037 3037 3036 3034 3033 3032 3031 3029 3029 3027 3026 3026 3025 3024 3022 3021 3020 3020 3019 3019 3024 3026 3028 3032 3035
3010 3017 3021 3023 3025 3028 3032 3033 3033 3030 3028 3026 3023 3023 3021 3019 3018 3017 3016 3016 3014 3013 3010 3009 3009 3009 3009 3011 3010 3015 3018 3021
3008 3014 3017 3019 3022 3024 3028 3029 3027 3024 3022 3019 3018 3015 3013 3011 3008 3007 3006 3004 3003 3002 3001 3000 3000 3000 2999 2998 2998 3001 3006 3008
3003 3007 3013 3015 3017 3020 3020 3020 3018 3017 3015 3012 3009 3007 3005 3003 3000 2997 2996 2995 2993 2992 2992 2990 2989 2989 2989 2988 2988 2990 2993 2996
3003 3005 3008 3013 3015 3015 3012 3010 3009 3008 3005 3004 3002 2999 2997 2995 2992 2989 2987 2985 2984 2983 2982 2980 2980 2980 2979 2979 2979 2981 2984 2984
3011 3011 3012 3011 3009 3009 3007 3006 3004 3002 3000 2997 2995 2992 2990 2987 2984 2981 2978 2976 2973 2972 2972 2972 2971 2970 2970 2969 2969 2972 2974 2975
3012 3012 3012 3010 3008 3005 3002 2999 2997 2994 2992 2990 2986 2984 2982 2980 2977 2973 2970 2967 2964 2962 2962 2962 2963 2961 2962 2960 2960 2963 2965 2968
3008 3009 3007 3005 3002 2999 2996 2994 2991 2989 2988 2985 2980 2978 2975 2972 2969 2966 2962 2959 2955 2952 2952 2953 2953 2953 2952 2951 2951 2954 2955 2960
3005 3002 2999 2998 2995 2993 2991 2987 2985 2984 2982 2979 2975 2972 2969 2966 2963 2959 2955 2951 2947 2945 2944 2943 2943 2943 2943 2944 2944 2945 2947 2949
3002 3000 2997 2995 2991 2988 2985 2983 2982 2979 2977 2974 2972 2968 2964 2961 2957 2952 2947 2944 2940 2939 2938 2935 2934 2933 2934 2936 2933 2934 2933 2933
3000 2997 2994 2991 2987 2985 2983 2981 2979 2977 2975 2971 2969 2966 2963 2958 2953 2947 2944 2939 2935 2935 2933 2929 2928 2926 2925 2926 2925 2923 2924 2922
2997 2994 2991 2989 2986 2984 2982 2981 2978 2976 2974 2971 2969 2966 2962 2957 2953 2948 2943 2938 2936 2932 2928 2923 2921 2920 2919 2919 2918 2919 2920 2921
2992 2990 2988 2986 2984 2983 2982 2980 2978 2976 2974 2971 2969 2966 2962 2959 2955 2951 2946 2941 2937 2932 2925 2920 2915 2913 2912 2912 2911 2912 2913 2915